,,PA_Meas_PMT16A,,PR_Meas_QMR101_102,,RH_Meas_QMH101,,SR_Meas_QMS101,,TA_Meas_QMH101,,GenWind,,GenWind,
time,status,PA,status,PR,status,RH,status,SR,status,TA,status,DirAvg,status,SpdAvg,
2012-11-16, 08:21:04,VALID,918.668,VALID,0,VALID,97.1909,VALID,142.037,VALID,20.7771,VALID,103,VALID,0,
2012-11-16, 08:22:04,VALID,918.654,VALID,0,VALID,97.2214,VALID,144.831,VALID,20.7966,VALID,94,VALID,0,
2012-11-16, 08:23:04,VALID,918.664,VALID,0,VALID,97.1986,VALID,139.136,VALID,20.8551,VALID,113,VALID,0,
2012-11-16, 08:24:04,VALID,918.745,VALID,0,VALID,97.1986,VALID,139.566,VALID,20.7381,VALID,132,VALID,0,
2012-11-16, 08:25:04,VALID,918.647,VALID,0,VALID,97.1757,VALID,135.698,VALID,20.8372,VALID,132,VALID,0,
2012-11-16, 08:26:04,VALID,918.609,VALID,0,VALID,97.1909,VALID,162.021,VALID,20.8941,VALID,72,VALID,0,
2012-11-16, 08:27:04,VALID,918.666,VALID,0,VALID,97.1604,VALID,199.303,VALID,20.9331,VALID,91,VALID,0,
2012-11-16, 08:28:04,VALID,918.746,VALID,0,VALID,97.1757,VALID,184.262,VALID,21.0892,VALID,93,VALID,0,
2012-11-16, 08:29:04,VALID,918.711,VALID,0,VALID,97.1681,VALID,177.493,VALID,21.1282,VALID,105,VALID,0,
2012-11-16, 08:30:04,VALID,918.803,VALID,0,VALID,97.1604,VALID,199.948,VALID,21.2063,VALID,119,VALID,0,
2012-11-16, 08:31:04,VALID,919.008,VALID,0,VALID,97.1147,VALID,218.75,VALID,21.1282,VALID,82,VALID,0.0289063,
2012-11-16, 08:32:04,VALID,918.735,VALID,0,VALID,97.0994,VALID,234.866,VALID,21.0892,VALID,113,VALID,0,
2012-11-16, 08:33:04,VALID,918.851,VALID,0,VALID,97.069,VALID,249.586,VALID,21.1868,VALID,112,VALID,0,
2012-11-16, 08:34:04,VALID,918.751,VALID,0,VALID,97.0461,VALID,273.008,VALID,21.1673,VALID,128,VALID,0,
2012-11-16, 08:35:04,VALID,918.683,VALID,0,VALID,97.0232,VALID,236.263,VALID,21.2648,VALID,173,VALID,0,
2012-11-16, 08:36:04,VALID,918.826,VALID,0,VALID,96.9851,VALID,282.57,VALID,21.3429,VALID,134,VALID,0,
2012-11-16, 08:37:04,VALID,918.463,VALID,0,VALID,96.9546,VALID,294.066,VALID,21.4014,VALID,157,VALID,0,
2012-11-16, 08:38:04,VALID,918.762,VALID,0,VALID,96.9317,VALID,306.53,VALID,21.4209,VALID,172,VALID,0,
2012-11-16, 08:39:04,VALID,918.751,VALID,0,VALID,96.9012,VALID,319.852,VALID,21.499,VALID,189,VALID,0,
2012-11-16, 08:40:04,VALID,918.91,VALID,0,VALID,96.8555,VALID,511.635,VALID,21.5965,VALID,170,VALID,0,
2012-11-16, 08:41:04,VALID,918.751,VALID,0,VALID,96.7869,VALID,517.114,VALID,21.6746,VALID,168,VALID,0,
2012-11-16, 08:42:04,VALID,918.891,VALID,0,VALID,96.7107,VALID,528.073,VALID,21.829,VALID,161,VALID,0,
2012-11-16, 08:43:04,VALID,919.03,VALID,0,VALID,96.5811,VALID,525.172,VALID,21.9266,VALID,127,VALID,0,
2012-11-16, 08:44:04,VALID,918.858,VALID,0,VALID,96.4286,VALID,675.16,VALID,22.1039,VALID,146,VALID,0,
2012-11-16, 08:45:04,VALID,918.719,VALID,0,VALID,96.2761,VALID,478.65,VALID,22.3186,VALID,172,VALID,0,
2012-11-16, 08:46:04,VALID,918.814,VALID,0,VALID,95.5976,VALID,724.905,VALID,22.3559,VALID,165,VALID,0,
2012-11-16, 08:47:04,VALID,917.935,VALID,0,VALID,95.247,VALID,631.969,VALID,22.5723,VALID,167,VALID,0,
2012-11-16, 08:48:04,VALID,918.92,VALID,0,VALID,94.9115,VALID,717.062,VALID,22.7055,VALID,166,VALID,0,
2012-11-16, 08:49:04,VALID,918.813,VALID,0,VALID,94.355,VALID,704.169,VALID,22.9415,VALID,221,VALID,0,
2012-11-16, 08:50:04,VALID,918.794,VALID,0,VALID,93.4859,VALID,702.343,VALID,23.1952,VALID,183,VALID,0,
2012-11-16, 08:51:04,VALID,918.931,VALID,0,VALID,90.65,VALID,699.549,VALID,23.488,VALID,187,VALID,0,
2012-11-16, 08:52:04,VALID,918.759,VALID,0,VALID,88.2563,VALID,697.293,VALID,23.7418,VALID,187,VALID,0,
2012-11-16, 08:53:04,VALID,918.834,VALID,0,VALID,85.2832,VALID,694.392,VALID,23.9761,VALID,179,VALID,0,
2012-11-16, 08:54:04,VALID,918.533,VALID,0,VALID,83.1715,VALID,691.491,VALID,24.2105,VALID,189,VALID,0,
2012-11-16, 08:55:04,VALID,919.082,VALID,0,VALID,81.1513,VALID,689.987,VALID,24.3453,VALID,199,VALID,0,
2012-11-16, 08:56:04,VALID,918.704,VALID,0,VALID,82.7369,VALID,689.772,VALID,24.482,VALID,152,VALID,0,
2012-11-16, 08:57:04,VALID,918.871,VALID,0,VALID,80.4423,VALID,690.309,VALID,24.4039,VALID,133,VALID,0,
2012-11-16, 08:58:04,VALID,916.975,VALID,0,VALID,80.9226,VALID,688.375,VALID,24.3063,VALID,115,VALID,0,
2012-11-16, 08:59:04,INVALID,919.351,VALID,0,VALID,83.202,VALID,683.97,VALID,24.4234,VALID,135,VALID,0,
2012-11-16, 09:00:04,VALID,919.361,VALID,0,VALID,81.4714,VALID,678.706,VALID,24.4057,VALID,92,VALID,0,
2012-11-16, 09:01:04,VALID,918.902,VALID,0,VALID,80.2212,VALID,674.301,VALID,24.5015,VALID,170,VALID,0,
2012-11-16, 09:02:04,VALID,919.087,VALID,0,VALID,81.6849,VALID,669.251,VALID,24.6206,VALID,126,VALID,0,
2012-11-16, 09:03:04,VALID,918.915,VALID,0,VALID,77.4996,VALID,664.201,VALID,24.7182,VALID,142,VALID,1.50508,
2012-11-16, 09:04:04,VALID,918.913,VALID,0,VALID,78.666,VALID,660.118,VALID,24.562,VALID,124,VALID,1.80313,
2012-11-16, 09:05:04,VALID,918.924,VALID,0,VALID,80.3127,VALID,656.68,VALID,24.5034,VALID,122,VALID,1.92148,
2012-11-16, 09:06:04,VALID,918.831,VALID,0,VALID,81.0979,VALID,652.812,VALID,24.4429,VALID,115,VALID,1.26016,
2012-11-16, 09:07:04,VALID,919.004,VALID,0,VALID,79.7028,VALID,649.482,VALID,24.5424,VALID,112,VALID,2.66797,
2012-11-16, 09:08:04,VALID,918.761,VALID,0,VALID,78.9328,VALID,647.44,VALID,24.5015,VALID,131,VALID,1.75664,
2012-11-16, 09:09:04,VALID,918.889,VALID,0,VALID,79.5732,VALID,644.647,VALID,24.5034,VALID,160,VALID,1.66875,
2012-11-16, 09:10:04,VALID,918.8,VALID,0,VALID,81.8831,VALID,644.647,VALID,24.5601,VALID,116,VALID,1.68945,
2012-11-16, 09:11:04,VALID,918.979,VALID,0,VALID,78.6127,VALID,647.011,VALID,24.5034,VALID,119,VALID,2.15586,
2012-11-16, 09:12:04,VALID,918.978,VALID,0,VALID,78.0485,VALID,652.598,VALID,24.5229,VALID,154,VALID,1.99414,
2012-11-16, 09:13:04,VALID,918.849,VALID,0,VALID,80.6939,VALID,662.375,VALID,24.5992,VALID,98,VALID,1.81719,
2012-11-16, 09:14:04,VALID,920.429,VALID,0,VALID,79.7333,VALID,665.383,VALID,24.6187,VALID,93,VALID,1.49805,
2012-11-16, 09:15:04,VALID,918.467,VALID,0,VALID,81.3495,VALID,661.838,VALID,24.7358,VALID,42,VALID,2.2418,
2012-11-16, 09:16:04,VALID,918.727,VALID,0,VALID,77.7436,VALID,655.391,VALID,24.7554,VALID,72,VALID,3.32109,
2012-11-16, 09:17:04,VALID,918.746,VALID,0,VALID,77.6445,VALID,654.854,VALID,24.6577,VALID,105,VALID,2.46016,
2012-11-16, 09:18:04,VALID,918.237,VALID,0,VALID,81.7611,VALID,657.325,VALID,24.6187,VALID,137,VALID,2.40742,
2012-11-16, 09:19:04,VALID,920.136,VALID,0,VALID,79.5046,VALID,660.226,VALID,24.814,VALID,156,VALID,0.873828,
2012-11-16, 09:20:04,VALID,918.685,VALID,0,VALID,77.5835,VALID,661.515,VALID,24.8316,VALID,122,VALID,2.18398,
2012-11-16, 09:21:04,VALID,918.821,VALID,0,VALID,80.854,VALID,663.127,VALID,24.8921,VALID,53,VALID,1.43242,
2012-11-16, 09:22:04,VALID,918.732,VALID,0,VALID,76.7297,VALID,664.738,VALID,24.9507,VALID,166,VALID,1.40352,
2012-11-16, 09:23:04,VALID,918.884,VALID,0,VALID,80.5948,VALID,663.986,VALID,25.0679,VALID,74,VALID,1.51016,
2012-11-16, 09:24:04,VALID,918.85,VALID,0,VALID,76.3333,VALID,669.681,VALID,25.146,VALID,131,VALID,1.54688,
2012-11-16, 09:25:04,VALID,918.983,VALID,0,VALID,75.1516,VALID,625.2,VALID,25.2222,VALID,76,VALID,2.01797,
2012-11-16, 09:26:04,VALID,918.979,VALID,0,VALID,75.8377,VALID,668.499,VALID,25.0483,VALID,88,VALID,2.09844,
2012-11-16, 09:27:04,VALID,918.871,VALID,0,VALID,79.0929,VALID,669.036,VALID,25.1264,VALID,124,VALID,1.30977,
2012-11-16, 09:28:04,VALID,917.189,VALID,0,VALID,76.8669,VALID,666.887,VALID,25.2808,VALID,134,VALID,0.435937,
2012-11-16, 09:29:04,VALID,918.729,VALID,0,VALID,76.6535,VALID,651.631,VALID,25.5347,VALID,118,VALID,0.666406,
2012-11-16, 09:30:04,VALID,918.826,VALID,0,VALID,77.736,VALID,626.489,VALID,25.7124,VALID,155,VALID,1.81797,
2012-11-16, 09:31:04,VALID,918.739,VALID,0,VALID,76.9813,VALID,581.579,VALID,25.73,VALID,95,VALID,0.534375,
2012-11-16, 09:32:04,VALID,918.82,VALID,0,VALID,73.8785,VALID,510.023,VALID,25.9488,VALID,150,VALID,1.11836,
2012-11-16, 09:33:04,VALID,917.597,VALID,0,VALID,72.8189,VALID,419.235,VALID,25.8296,VALID,142,VALID,1.51641,
2012-11-16, 09:34:04,VALID,918.782,VALID,0,VALID,72.5902,VALID,324.365,VALID,25.6929,VALID,173,VALID,1.72187,
2012-11-16, 09:35:04,VALID,918.7,VALID,0,VALID,74.7705,VALID,235.941,VALID,25.7124,VALID,180,VALID,1.10234,
2012-11-16, 09:36:04,INVALID,916.561,VALID,0,VALID,71.7745,VALID,171.154,VALID,25.8882,VALID,75,VALID,1.97539,
2012-11-16, 09:37:04,VALID,917.052,VALID,0,VALID,71.7058,VALID,139.029,VALID,25.7515,VALID,73,VALID,3.06094,
2012-11-16, 09:38:04,VALID,918.785,VALID,0,VALID,75.9063,VALID,137.525,VALID,25.6343,VALID,69,VALID,1.9832,
2012-11-16, 09:39:04,VALID,919.814,VALID,0,VALID,74.7247,VALID,169.22,VALID,25.5561,VALID,110,VALID,2.24414,
2012-11-16, 09:40:04,VALID,919.06,VALID,0,VALID,73.8252,VALID,220.147,VALID,25.478,VALID,128,VALID,1.93438,
2012-11-16, 09:41:04,VALID,919.283,VALID,0,VALID,72.1404,VALID,259.685,VALID,25.5952,VALID,165,VALID,1.65664,
2012-11-16, 09:42:04,VALID,918.587,VALID,0,VALID,73.8252,VALID,286.868,VALID,25.6929,VALID,140,VALID,1.55625,
2012-11-16, 09:43:04,VALID,918.806,VALID,0,VALID,73.0628,VALID,299.653,VALID,25.771,VALID,165,VALID,2.02305,
2012-11-16, 09:44:04,VALID,918.823,VALID,0,VALID,69.2359,VALID,299.546,VALID,25.6929,VALID,131,VALID,2.56211,
2012-11-16, 09:45:04,VALID,918.756,VALID,0,VALID,73.3144,VALID,290.521,VALID,25.6929,VALID,63,VALID,0.828906,
2012-11-16, 09:46:04,VALID,918.69,VALID,0,VALID,71.2408,VALID,282.785,VALID,25.732,VALID,147,VALID,1.04375,
2012-11-16, 09:47:04,VALID,918.846,VALID,0,VALID,75.0449,VALID,282.033,VALID,25.7906,VALID,107,VALID,0.942187,
2012-11-16, 09:48:04,VALID,918.811,VALID,0,VALID,75.7844,VALID,283.215,VALID,25.8882,VALID,100,VALID,1.20508,
2012-11-16, 09:49:04,VALID,918.905,VALID,0,VALID,74.9534,VALID,284.397,VALID,25.8687,VALID,99,VALID,2.17891,
2012-11-16, 09:50:04,VALID,918.718,VALID,0,VALID,74.3054,VALID,288.802,VALID,25.9468,VALID,175,VALID,0.903516,
2012-11-16, 09:51:04,VALID,918.867,VALID,0,VALID,71.3018,VALID,301.802,VALID,25.9859,VALID,143,VALID,2.11289,
2012-11-16, 09:52:04,VALID,918.49,VALID,0,VALID,71.8583,VALID,290.843,VALID,26.0425,VALID,142,VALID,1.29727,
2012-11-16, 09:53:04,VALID,918.424,VALID,0,VALID,71.0579,VALID,299.116,VALID,25.9839,VALID,132,VALID,1.32969,
2012-11-16, 09:54:04,VALID,918.978,VALID,0,VALID,73.6346,VALID,300.191,VALID,25.9058,VALID,133,VALID,1.54727,
2012-11-16, 09:55:04,INVALID,916.904,VALID,0,VALID,72.087,VALID,442.013,VALID,25.8296,VALID,97,VALID,2.10586,
2012-11-16, 09:56:04,VALID,918.729,VALID,0,VALID,73.4516,VALID,451.79,VALID,25.8101,VALID,80,VALID,2.46211,
2012-11-16, 09:57:04,VALID,918.688,VALID,0,VALID,69.5103,VALID,671.722,VALID,25.7515,VALID,114,VALID,1.38047,
2012-11-16, 09:58:04,VALID,918.69,VALID,0,VALID,72.9942,VALID,881.555,VALID,25.6929,VALID,88,VALID,1.58867,
2012-11-16, 09:59:04,VALID,918.61,VALID,0,VALID,74.1606,VALID,508.734,VALID,25.8492,VALID,107,VALID,1.64844,
2012-11-16, 10:00:04,VALID,918.692,VALID,0,VALID,71.2637,VALID,879.406,VALID,25.9078,VALID,76,VALID,1.43008,
2012-11-16, 10:01:04,VALID,918.338,VALID,0,VALID,69.6323,VALID,478.65,VALID,26.0054,VALID,79,VALID,2.54258,
2012-11-16, 10:02:04,VALID,918.617,VALID,0,VALID,70.1812,VALID,521.627,VALID,25.9859,VALID,101,VALID,1.85273,
2012-11-16, 10:03:04,VALID,918.5,VALID,0,VALID,72.5444,VALID,568.471,VALID,26.0641,VALID,81,VALID,0.819141,
2012-11-16, 10:04:04,VALID,918.648,VALID,0,VALID,71.8736,VALID,752.195,VALID,26.2399,VALID,73,VALID,0.554688,
2012-11-16, 10:05:04,VALID,918.587,VALID,0,VALID,70.6386,VALID,611.233,VALID,26.4939,VALID,73,VALID,0.683203,
2012-11-16, 10:06:04,VALID,918.428,VALID,0,VALID,69.2587,VALID,798.718,VALID,26.8065,VALID,131,VALID,0.564844,
2012-11-16, 10:07:04,VALID,918.076,VALID,0,VALID,67.3757,VALID,642.283,VALID,27.041,VALID,121,VALID,1.87891,
2012-11-16, 10:08:04,VALID,918.61,VALID,0,VALID,68.8547,VALID,589.637,VALID,26.8065,VALID,122,VALID,1.8707,
2012-11-16, 10:09:04,VALID,918.513,VALID,0,VALID,69.4951,VALID,793.131,VALID,26.787,VALID,153,VALID,1.18867,
2012-11-16, 10:10:04,VALID,918.53,VALID,0,VALID,65.1802,VALID,786.254,VALID,26.7088,VALID,127,VALID,1.92188,
2012-11-16, 10:11:04,VALID,918.511,VALID,0,VALID,68.6946,VALID,945.912,VALID,26.6091,VALID,133,VALID,1.07266,
2012-11-16, 10:12:04,VALID,918.473,VALID,0,VALID,67.4291,VALID,1009.52,VALID,26.6893,VALID,182,VALID,1.48398,
2012-11-16, 10:13:04,VALID,918.457,VALID,0,VALID,65.4547,VALID,995.657,VALID,26.826,VALID,161,VALID,1.28086,
2012-11-16, 10:14:04,VALID,918.036,VALID,0,VALID,63.4192,VALID,993.186,VALID,27.0801,VALID,225,VALID,1.16992,
2012-11-16, 10:15:04,VALID,918.528,VALID,0,VALID,63.5107,VALID,996.302,VALID,27.3146,VALID,184,VALID,1.83008,
2012-11-16, 10:16:04,VALID,918.513,VALID,0,VALID,63.564,VALID,1012.1,VALID,27.3732,VALID,103,VALID,0.848437,
2012-11-16, 10:17:04,VALID,918.385,VALID,0,VALID,65.2946,VALID,994.583,VALID,27.4123,VALID,98,VALID,2.35508,
2012-11-16, 10:18:04,VALID,918.812,VALID,0,VALID,62.8932,VALID,811.825,VALID,27.2344,VALID,104,VALID,3.68516,
2012-11-16, 10:19:04,VALID,918.43,VALID,0,VALID,64.273,VALID,834.818,VALID,27.1778,VALID,134,VALID,1.52969,
2012-11-16, 10:20:04,VALID,918.475,VALID,0,VALID,64.3264,VALID,660.011,VALID,27.1757,VALID,141,VALID,0.908203,
2012-11-16, 10:21:04,VALID,918.323,VALID,0,VALID,67.3834,VALID,553.752,VALID,27.3125,VALID,144,VALID,0.884766,
2012-11-16, 10:22:04,VALID,918.412,VALID,0,VALID,63.3201,VALID,449.856,VALID,27.2148,VALID,137,VALID,2.09883,
2012-11-16, 10:23:04,VALID,918.644,VALID,0,VALID,63.3811,VALID,438.038,VALID,27.0585,VALID,149,VALID,1.67227,
2012-11-16, 10:24:04,INVALID,914.425,VALID,0,VALID,66.8421,VALID,434.062,VALID,27.1171,VALID,220,VALID,0.761719,
2012-11-16, 10:25:04,VALID,918.39,VALID,0,VALID,64.273,VALID,445.344,VALID,26.9022,VALID,120,VALID,2.88438,
2012-11-16, 10:26:04,VALID,918.297,VALID,0,VALID,66.926,VALID,437.5,VALID,26.6286,VALID,93,VALID,3.1918,
2012-11-16, 10:27:04,VALID,918.367,VALID,0,VALID,68.0924,VALID,450.608,VALID,26.4919,VALID,78,VALID,0.964844,
2012-11-16, 10:28:04,VALID,918.345,VALID,0,VALID,64.4407,VALID,476.394,VALID,26.4919,VALID,183,VALID,2.11719,
2012-11-16, 10:29:04,VALID,918.367,VALID,0,VALID,66.8726,VALID,500.783,VALID,26.57,VALID,159,VALID,1.26758,
2012-11-16, 10:30:04,VALID,918.258,VALID,0,VALID,64.7152,VALID,493.477,VALID,26.4528,VALID,142,VALID,2.03437,
2012-11-16, 10:31:04,VALID,918.313,VALID,0,VALID,64.1587,VALID,537.421,VALID,26.4137,VALID,167,VALID,2.03672,
2012-11-16, 10:32:04,VALID,918.3,VALID,0,VALID,66.7735,VALID,566.107,VALID,26.4528,VALID,169,VALID,1.14805,
2012-11-16, 10:33:04,VALID,918.148,VALID,0,VALID,64.7685,VALID,673.226,VALID,26.6091,VALID,115,VALID,2.49531,
2012-11-16, 10:34:04,VALID,918.211,VALID,0,VALID,68.1381,VALID,693.103,VALID,26.6091,VALID,92,VALID,2.4793,
2012-11-16, 10:35:04,VALID,918.207,VALID,0,VALID,66.8345,VALID,870.381,VALID,26.7263,VALID,111,VALID,1.95078,
2012-11-16, 10:36:04,VALID,918.209,VALID,0,VALID,63.1143,VALID,595.654,VALID,26.9803,VALID,202,VALID,0.925781,
2012-11-16, 10:37:04,VALID,918.209,VALID,0,VALID,61.3685,VALID,727.162,VALID,27.2344,VALID,199,VALID,1.4707,
2012-11-16, 10:38:04,VALID,918.269,VALID,0,VALID,61.3304,VALID,614.886,VALID,27.508,VALID,184,VALID,1.6,
2012-11-16, 10:39:04,VALID,918.226,VALID,0,VALID,61.803,VALID,638.308,VALID,27.6252,VALID,155,VALID,1.73789,
2012-11-16, 10:40:04,VALID,918.246,VALID,0,VALID,58.4411,VALID,997.054,VALID,27.6231,VALID,176,VALID,1.87656,
2012-11-16, 10:41:04,VALID,918.274,VALID,0,VALID,59.1196,VALID,632.614,VALID,27.4298,VALID,217,VALID,2.19375,
2012-11-16, 10:42:04,VALID,918.22,VALID,0,VALID,63.6555,VALID,714.699,VALID,27.5275,VALID,135,VALID,0.795703,
2012-11-16, 10:43:04,VALID,918.204,VALID,0,VALID,59.0967,VALID,561.273,VALID,27.5059,VALID,134,VALID,1.64961,
2012-11-16, 10:44:04,VALID,918.086,VALID,0,VALID,60.1488,VALID,693.318,VALID,27.508,VALID,189,VALID,1.80703,
2012-11-16, 10:45:04,VALID,918.058,VALID,0,VALID,60.8425,VALID,621.44,VALID,27.5275,VALID,182,VALID,1.30234,
2012-11-16, 10:46:04,VALID,918.149,VALID,0,VALID,60.1716,VALID,839.223,VALID,27.4884,VALID,160,VALID,1.66172,
2012-11-16, 10:47:04,VALID,918.506,VALID,0,VALID,59.0434,VALID,1135.65,VALID,27.3712,VALID,167,VALID,1.23438,
2012-11-16, 10:48:04,VALID,918.067,VALID,0,VALID,63.4039,VALID,731.674,VALID,27.4493,VALID,140,VALID,1.75156,
2012-11-16, 10:49:04,INVALID,915.609,VALID,0,VALID,63.5412,VALID,494.981,VALID,27.3712,VALID,47,VALID,3.39063,
2012-11-16, 10:50:04,VALID,918.083,VALID,0,VALID,60.2555,VALID,658.829,VALID,27.1953,VALID,58,VALID,3.4,
2012-11-16, 10:51:04,INVALID,921.221,VALID,0,VALID,61.6582,VALID,693.533,VALID,27.1171,VALID,62,VALID,1.86016,
2012-11-16, 10:52:04,VALID,918.219,VALID,0,VALID,62.3214,VALID,668.177,VALID,27.1562,VALID,120,VALID,0.791797,
2012-11-16, 10:53:04,VALID,917.994,VALID,0,VALID,61.3075,VALID,906.481,VALID,27.3907,VALID,133,VALID,0.754297,
2012-11-16, 10:54:04,VALID,917.578,VALID,0,VALID,60.347,VALID,482.626,VALID,27.8011,VALID,201,VALID,1.04336,
2012-11-16, 10:55:04,VALID,917.95,VALID,0,VALID,59.5465,VALID,630.465,VALID,27.8988,VALID,88,VALID,1.08555,
2012-11-16, 10:56:04,VALID,917.504,VALID,0,VALID,59.2644,VALID,422.673,VALID,27.9379,VALID,88,VALID,0.788281,
2012-11-16, 10:57:04,VALID,917.894,VALID,0,VALID,61.1093,VALID,453.509,VALID,27.8381,VALID,101,VALID,0.741797,
2012-11-16, 10:58:04,VALID,917.797,VALID,0,VALID,63.1219,VALID,407.632,VALID,27.8402,VALID,156,VALID,0.614844,
2012-11-16, 10:59:04,VALID,917.854,VALID,0,VALID,59.3483,VALID,513.139,VALID,27.8793,VALID,122,VALID,1.12539,
2012-11-16, 11:00:04,VALID,917.805,VALID,0,VALID,59.981,VALID,496.163,VALID,27.7229,VALID,155,VALID,0.932031,
2012-11-16, 11:01:04,VALID,918.1,VALID,0,VALID,60.0649,VALID,873.926,VALID,27.7795,VALID,165,VALID,1.06953,
2012-11-16, 11:02:04,VALID,917.922,VALID,0,VALID,61.4142,VALID,783.568,VALID,27.8207,VALID,157,VALID,1.84961,
2012-11-16, 11:03:04,VALID,917.802,VALID,0,VALID,62.9084,VALID,731.674,VALID,27.7795,VALID,100,VALID,1.94766,
2012-11-16, 11:04:04,VALID,917.796,VALID,0,VALID,60.2174,VALID,831.165,VALID,27.7208,VALID,165,VALID,0.8625,
2012-11-16, 11:05:04,VALID,917.749,VALID,0,VALID,59.7676,VALID,917.547,VALID,27.7795,VALID,136,VALID,1.0582,
2012-11-16, 11:06:04,VALID,917.775,VALID,0,VALID,61.6658,VALID,896.489,VALID,27.8988,VALID,81,VALID,1.14023,
2012-11-16, 11:07:04,VALID,917.735,VALID,0,VALID,61.2923,VALID,885.423,VALID,27.8576,VALID,111,VALID,0.81875,
2012-11-16, 11:08:04,VALID,917.766,VALID,0,VALID,60.9187,VALID,873.174,VALID,27.9379,VALID,189,VALID,1.73633,
2012-11-16, 11:09:04,VALID,917.705,VALID,0,VALID,60.042,VALID,865.331,VALID,27.8967,VALID,112,VALID,2.35938,
2012-11-16, 11:10:04,VALID,917.566,VALID,0,VALID,59.516,VALID,855.876,VALID,27.9966,VALID,208,VALID,1.62148,
2012-11-16, 11:11:04,VALID,917.703,VALID,0,VALID,61.7802,VALID,853.727,VALID,28.1334,VALID,96,VALID,1.64375,
2012-11-16, 11:12:04,VALID,917.771,VALID,0,VALID,60.7281,VALID,846.314,VALID,27.9966,VALID,132,VALID,2.58125,
2012-11-16, 11:13:04,VALID,917.613,VALID,0,VALID,59.7066,VALID,842.983,VALID,27.8185,VALID,158,VALID,2.70352,
2012-11-16, 11:14:04,VALID,917.603,VALID,0,VALID,60.6443,VALID,842.124,VALID,27.8011,VALID,123,VALID,2.14258,
2012-11-16, 11:15:04,VALID,917.205,VALID,0,VALID,59.5922,VALID,839.653,VALID,27.7404,VALID,139,VALID,2.68125,
2012-11-16, 11:16:04,VALID,918.015,VALID,0,VALID,61.9021,VALID,838.041,VALID,27.7208,VALID,145,VALID,1.44453,
2012-11-16, 11:17:04,VALID,917.491,VALID,0,VALID,60.6748,VALID,836.214,VALID,27.8597,VALID,153,VALID,1.41758,
2012-11-16, 11:18:04,VALID,917.51,VALID,0,VALID,62.2223,VALID,827.404,VALID,28.0357,VALID,182,VALID,1.74219,
2012-11-16, 11:19:04,VALID,917.569,VALID,0,VALID,58.9976,VALID,831.809,VALID,28.014,VALID,145,VALID,1.58086,
2012-11-16, 11:20:04,VALID,917.396,VALID,0,VALID,58.2276,VALID,831.272,VALID,27.9749,VALID,108,VALID,2.17969,
2012-11-16, 11:21:04,VALID,917.537,VALID,0,VALID,59.8667,VALID,829.231,VALID,27.9358,VALID,28,VALID,0.463281,
2012-11-16, 11:22:04,VALID,917.25,VALID,0,VALID,58.807,VALID,831.702,VALID,27.9944,VALID,143,VALID,1.46523,
2012-11-16, 11:23:04,VALID,917.47,VALID,0,VALID,60.9721,VALID,832.991,VALID,28.1117,VALID,108,VALID,0.433984,
2012-11-16, 11:24:04,VALID,917.605,VALID,0,VALID,60.4461,VALID,833.528,VALID,28.2898,VALID,130,VALID,2.10273,
2012-11-16, 11:25:04,VALID,917.271,VALID,0,VALID,60.1564,VALID,833.528,VALID,28.1703,VALID,147,VALID,1.53516,
2012-11-16, 11:26:04,VALID,916.6,VALID,0,VALID,62.2299,VALID,835.355,VALID,28.0335,VALID,121,VALID,2.65664,
2012-11-16, 11:27:04,VALID,917.308,VALID,0,VALID,60.1411,VALID,836.107,VALID,27.8988,VALID,136,VALID,2.08203,
2012-11-16, 11:28:04,VALID,917.161,VALID,0,VALID,64.1358,VALID,835.247,VALID,27.7795,VALID,112,VALID,2.19297,
2012-11-16, 11:29:04,VALID,917.276,VALID,0,VALID,60.042,VALID,837.181,VALID,27.7599,VALID,97,VALID,2.3668,
2012-11-16, 11:30:04,VALID,917.295,VALID,0,VALID,62.3519,VALID,836.859,VALID,27.6427,VALID,110,VALID,2.26328,
2012-11-16, 11:31:04,VALID,917.21,VALID,0,VALID,61.6277,VALID,835.677,VALID,27.6231,VALID,73,VALID,3.23594,
2012-11-16, 11:32:04,VALID,917.122,VALID,0,VALID,61.8793,VALID,836.214,VALID,27.5254,VALID,60,VALID,1.43984,
2012-11-16, 11:33:04,VALID,917.175,VALID,0,VALID,64.3264,VALID,837.611,VALID,27.6036,VALID,123,VALID,1.06133,
2012-11-16, 11:34:04,VALID,917.174,VALID,0,VALID,62.9084,VALID,839.867,VALID,27.799,VALID,142,VALID,1.93359,
2012-11-16, 11:35:04,VALID,917.226,VALID,0,VALID,62.977,VALID,842.983,VALID,27.9163,VALID,135,VALID,1.34844,
2012-11-16, 11:36:04,VALID,917.065,VALID,0,VALID,60.7967,VALID,842.768,VALID,28.0531,VALID,357,VALID,1.03359,
2012-11-16, 11:37:04,VALID,917.136,VALID,0,VALID,61.9174,VALID,841.909,VALID,28.368,VALID,90,VALID,1.05508,
2012-11-16, 11:38:04,VALID,917.103,VALID,0,VALID,58.6851,VALID,842.339,VALID,28.229,VALID,109,VALID,2.77656,
2012-11-16, 11:39:04,VALID,916.997,VALID,0,VALID,58.4259,VALID,841.157,VALID,28.0552,VALID,186,VALID,1.77344,
2012-11-16, 11:40:04,VALID,916.972,VALID,0,VALID,59.4398,VALID,841.694,VALID,28.1877,VALID,192,VALID,0.430078,
2012-11-16, 11:41:04,VALID,917.156,VALID,0,VALID,60.6138,VALID,841.157,VALID,28.4831,VALID,59,VALID,1.91367,
2012-11-16, 11:42:04,VALID,916.915,VALID,0,VALID,61.4142,VALID,844.058,VALID,28.3267,VALID,77,VALID,1.89336,
2012-11-16, 11:43:04,VALID,917.017,VALID,0,VALID,61.8793,VALID,846.959,VALID,28.3267,VALID,48,VALID,2.21172,
2012-11-16, 11:44:04,VALID,917.001,VALID,0,VALID,59.5389,VALID,851.149,VALID,28.4049,VALID,200,VALID,1.41875,
2012-11-16, 11:45:04,VALID,916.944,VALID,0,VALID,59.2339,VALID,852.008,VALID,28.4223,VALID,228,VALID,0.938672,
2012-11-16, 11:46:04,VALID,917.215,VALID,0,VALID,58.929,VALID,853.083,VALID,28.3267,VALID,97,VALID,3.61211,
2012-11-16, 11:47:04,VALID,916.806,VALID,0,VALID,61.2923,VALID,853.513,VALID,28.229,VALID,172,VALID,2.55352,
2012-11-16, 11:48:04,VALID,916.891,VALID,0,VALID,60.5833,VALID,856.736,VALID,28.1703,VALID,174,VALID,2.72109,
2012-11-16, 11:49:04,VALID,916.733,VALID,0,VALID,64.273,VALID,858.562,VALID,28.2485,VALID,52,VALID,1.80781,
2012-11-16, 11:50:04,VALID,916.996,VALID,0,VALID,58.7994,VALID,861.248,VALID,28.0531,VALID,114,VALID,1.27109,
2012-11-16, 11:51:04,VALID,916.983,VALID,0,VALID,60.4613,VALID,861.785,VALID,28.0161,VALID,154,VALID,1.10273,
2012-11-16, 11:52:04,VALID,916.784,VALID,0,VALID,62.5959,VALID,859.637,VALID,28.0748,VALID,90,VALID,1.18672,
2012-11-16, 11:53:04,VALID,916.883,VALID,0,VALID,61.2084,VALID,858.67,VALID,28.3289,VALID,171,VALID,1.79062,
2012-11-16, 11:54:04,VALID,916.7,VALID,0,VALID,59.394,VALID,856.413,VALID,28.4049,VALID,160,VALID,3.09727,
2012-11-16, 11:55:04,VALID,916.772,VALID,0,VALID,59.4322,VALID,855.661,VALID,28.2681,VALID,134,VALID,2.22852,
2012-11-16, 11:56:04,VALID,916.741,VALID,0,VALID,60.3622,VALID,855.661,VALID,28.2485,VALID,104,VALID,1.91445,
2012-11-16, 11:57:04,VALID,916.798,VALID,0,VALID,62.9237,VALID,857.058,VALID,28.1899,VALID,58,VALID,1.66445,